PST,Max TemperatureF,Mean TemperatureF,Min TemperatureF,Max Dew PointF,MeanDew PointF,Min DewpointF,Max Humidity, Mean Humidity, Min Humidity, Max Sea Level PressureIn, Mean Sea Level PressureIn, Min Sea Level PressureIn, Max VisibilityMiles, Mean VisibilityMiles, Min VisibilityMiles, Max Wind SpeedMPH, Mean Wind SpeedMPH, Max Gust SpeedMPH,PrecipitationIn, CloudCover, Events, WindDirDegrees
2014-2-1,47,43,38,41,39,36,100,86,71,30.18,30.14,30.08,9,6,2,12,5,13,0.03,7,Rain,60
2014-2-2,46,39,31,37,34,32,100,83,65,30.07,30.01,29.96,9,6,0,16,7,19,0.01,5,Fog-Rain,59
2014-2-3,44,38,31,33,28,20,89,71,53,30.19,30.11,30.03,9,8,6,14,6,17,T,6,,52
2014-2-4,40,35,30,23,21,17,69,57,44,30.37,30.27,30.19,10,7,0,18,10,29,0.00,2,,52
2014-2-5,34,28,22,17,9,2,58,43,28,30.41,30.35,30.25,10,9,2,26,17,32,0.00,2,,51
2014-2-6,29,26,22,13,5,2,60,47,34,30.22,29.95,29.79,10,9,8,24,16,33,0.00,3,,51
2014-2-7,36,29,21,20,17,12,84,63,41,29.91,29.81,29.72,10,8,5,24,12,29,0.00,4,,58
2014-2-8,39,36,32,30,25,15,92,70,47,29.96,29.85,29.78,10,5,0,26,15,35,T,7,Fog-Snow,57
2014-2-9,37,34,31,36,33,29,100,95,89,30.07,30.03,29.98,9,6,2,14,9,18,0.28,8,Rain,55
2014-2-10,49,43,37,47,43,36,100,93,86,30.10,30.03,29.95,5,3,1,24,15,30,0.55,8,Rain,181
2014-2-11,49,45,40,47,45,40,100,97,93,30.12,29.96,29.51,4,2,0,43,12,55,1.31,8,Fog-Rain,124
2014-2-12,51,48,45,49,45,40,100,86,71,29.92,29.75,29.47,8,4,1,40,14,56,0.33,6,Rain,201
2014-2-13,52,48,44,46,43,40,100,86,71,30.12,29.96,29.70,8,5,4,24,13,28,0.05,6,Rain,193
2014-2-14,51,46,40,49,45,41,100,93,86,29.96,29.78,29.58,8,4,1,32,15,40,0.27,8,Rain,179
2014-2-15,52,45,38,49,42,35,100,86,71,29.92,29.51,29.20,9,3,0,45,18,54,1.03,7,Fog-Rain,111
2014-2-16,48,44,40,46,41,34,93,80,66,29.94,29.79,29.71,8,4,0,48,22,63,1.82,7,Fog-Rain,193
2014-2-17,49,46,42,45,42,38,96,91,86,29.94,29.79,29.70,9,5,2,28,13,36,0.62,7,Rain,222
2014-2-18,50,45,40,47,43,35,93,82,70,29.94,29.77,29.64,8,5,2,39,19,49,0.48,8,Rain,187
2014-2-19,46,41,36,45,38,33,92,81,70,30.16,30.07,29.92,10,5,0,30,13,35,0.41,7,Fog-Rain,223
2014-2-20,49,45,41,45,42,37,93,85,76,30.27,30.16,30.05,8,5,2,32,14,40,0.24,7,Rain,242
2014-2-21,46,39,32,41,35,30,96,77,58,30.32,30.29,30.26,9,7,2,17,7,23,0.06,5,Rain,280
2014-2-22,43,37,30,39,36,29,100,88,76,30.27,30.15,30.06,9,7,4,12,5,13,0.01,7,Rain,140
2014-2-23,45,43,40,40,39,36,100,88,76,30.06,29.98,29.94,9,5,2,16,6,19,0.04,8,Rain,99
2014-2-24,44,42,39,42,40,38,100,95,89,30.06,30.00,29.97,10,4,2,18,12,23,0.48,8,Rain,53
2014-2-25,53,48,42,41,39,36,89,74,59,30.06,30.00,29.94,10,9,2,29,16,35,0.00,3,,61
2014-2-26,56,49,41,43,38,34,86,71,55,29.92,29.82,29.67,10,9,7,17,9,23,T,3,Rain,58
2014-2-27,52,46,40,45,41,36,93,78,63,29.75,29.70,29.64,10,8,5,13,6,16,0.00,5,,44
2014-2-28,62,51,40,43,40,30,100,72,43,29.73,29.59,29.46,10,6,0,21,10,26,0.00,2,Fog,62